GFSNGP_500_rhum_000.txt.gz
RH
62 66 77 82 74 89 90 94 88 56 72 77 70 67 68 65 75 74 82 80 92 88 86 79 82 99 98 96 94 96 100 100 100 100 100 100 96 99 88 69 57 48 41 20
47 64 71 64 71 68 81 85 78 77 56 77 70 74 75 81 79 77 81 85 95 91 81 89 100 100 96 94 91 97 98 96 100 100 94 98 100 79 58 39 37 25 11 7
32 43 42 44 66 57 69 76 72 72 75 67 67 78 80 87 93 90 94 99 94 82 89 100 100 96 99 93 90 93 91 99 100 92 97 99 72 44 26 26 15 9 6 12
51 54 46 56 75 70 63 61 70 70 71 84 81 74 78 100 95 98 100 97 86 95 100 100 97 99 95 98 96 96 100 100 95 97 98 66 31 22 20 11 8 7 14 17
63 52 41 54 64 68 63 52 71 68 74 79 79 62 73 96 94 100 100 84 86 100 100 95 100 100 100 100 100 98 100 98 98 98 57 24 19 16 10 8 7 16 23 36
83 71 52 60 70 67 58 59 71 82 80 73 76 77 62 83 98 86 93 96 96 97 94 100 100 100 100 100 100 100 98 99 96 52 22 19 14 10 8 8 16 21 46 52
85 77 57 72 67 66 66 66 64 77 80 80 89 99 92 91 95 100 94 90 97 88 91 100 100 100 100 100 100 100 99 93 48 23 20 13 10 9 8 15 19 51 61 57
87 80 66 78 87 93 81 65 82 71 88 91 96 83 81 90 94 84 80 89 81 73 95 100 99 100 100 100 100 93 91 44 23 19 13 10 9 10 16 17 42 64 56 60
88 68 80 86 91 78 86 92 86 97 88 92 91 80 89 84 77 83 95 75 72 96 98 99 100 100 100 97 96 89 41 26 19 13 10 10 12 15 18 28 57 57 47 51
67 70 82 86 86 94 91 100 100 95 88 94 93 93 87 90 91 81 70 84 99 96 99 99 98 94 91 95 91 44 27 20 13 11 11 14 18 20 17 42 56 46 52 89
71 75 57 78 84 88 84 93 94 90 96 98 84 76 75 66 64 69 96 100 100 100 100 96 91 90 97 93 48 32 22 14 12 11 14 23 24 21 19 48 43 60 98 100
72 79 81 59 69 85 87 86 89 92 91 86 65 52 50 54 72 99 100 100 100 100 99 96 98 100 95 50 36 25 16 13 11 13 24 30 29 23 27 39 81 94 100 96
87 80 74 78 74 81 86 89 94 93 65 52 51 44 51 74 97 96 100 100 100 100 100 100 100 97 50 41 30 19 14 12 13 20 41 44 35 22 44 63 50 100 97 98
96 96 84 93 87 89 90 81 66 60 64 47 42 50 75 88 96 100 100 100 100 100 100 100 97 55 44 34 22 16 13 13 15 29 46 42 20 20 52 99 98 100 100 100
98 100 100 93 93 80 78 68 62 46 42 45 59 86 90 100 100 100 100 100 100 100 100 96 55 49 39 26 18 14 14 15 19 38 52 43 17 38 83 100 100 98 100 100
95 100 93 70 67 68 57 46 47 44 48 69 91 93 100 100 100 100 100 100 100 100 93 55 53 41 29 19 15 15 15 16 24 43 65 28 20 63 100 100 100 100 100 100
83 76 70 67 65 49 42 48 49 51 67 90 94 100 100 100 100 100 100 100 100 90 63 58 44 30 20 17 16 17 17 16 29 47 70 25 37 80 100 100 100 100 100 100
76 75 66 53 47 37 42 41 43 72 92 92 100 100 100 100 100 100 100 100 86 65 57 42 28 20 17 17 19 20 19 18 35 57 72 30 60 95 99 100 100 100 100 100
82 81 49 44 36 44 40 43 90 94 90 99 100 100 100 100 100 100 99 83 70 58 38 25 19 18 19 23 24 24 20 23 45 70 72 34 65 94 100 99 100 100 100 100
82 60 32 22 21 26 30 93 99 95 98 100 100 100 100 100 100 96 81 70 53 32 21 19 19 21 25 30 33 28 24 40 63 86 74 44 58 99 100 99 100 98 100 100
20 17 10 10 18 66 100 100 100 100 100 100 100 100 100 99 94 79 67 40 22 18 18 19 21 28 32 45 44 35 31 66 86 96 78 60 50 100 100 100 100 92 99 100
10 12 16 18 58 100 100 100 100 100 100 100 100 100 99 95 75 54 26 19 17 17 18 23 31 34 43 61 51 42 52 87 100 94 84 70 53 100 100 100 100 100 100 100
18 27 41 81 100 100 100 100 100 100 100 100 100 100 89 71 36 20 17 16 16 18 23 28 33 38 57 68 54 59 94 97 100 74 88 74 63 100 100 100 100 100 100 100
68 100 100 100 100 100 100 100 100 100 100 100 100 82 54 23 19 15 15 16 17 23 27 33 34 40 69 69 56 84 100 100 99 57 65 84 66 100 100 100 100 100 100 100
100 100 100 100 100 100 100 100 100 100 100 96 76 31 22 16 14 15 16 18 24 31 36 39 41 56 76 76 60 83 100 100 98 49 61 76 68 100 100 100 100 100 100 100
100 100 100 100 100 100 100 100 100 100 95 60 23 21 16 15 15 17 20 25 30 41 49 48 48 64 71 68 55 86 100 100 100 77 68 69 78 93 100 100 100 100 100 100
100 100 100 100 100 100 100 100 100 94 41 20 20 17 16 16 18 20 29 30 30 53 57 64 66 61 56 58 62 100 100 100 100 91 64 69 77 81 97 100 100 100 100 100

GFSNGP_500_rhum_003.txt.gz
RH
57 58 64 64 58 76 74 77 76 48 63 57 56 57 58 58 62 76 81 83 84 91 82 88 86 92 86 91 84 76 76 87 92 98 100 100 97 99 91 82 77 68 41 15
56 71 70 58 67 64 61 72 69 71 59 68 62 57 59 67 80 78 81 82 88 86 81 78 90 95 93 84 72 64 87 98 100 100 100 98 98 89 84 79 57 13 13 18
50 61 55 48 54 59 59 76 80 74 69 62 58 65 74 72 83 79 86 79 81 85 86 86 82 85 85 82 61 83 98 100 100 100 100 100 98 87 76 26 7 19 15 11
59 65 60 68 83 80 74 77 87 81 72 64 67 64 85 99 82 85 82 74 77 78 77 80 79 75 76 68 86 96 100 100 100 100 100 99 86 55 8 11 15 11 9 8
65 65 57 59 71 67 80 73 74 70 67 75 87 74 73 94 96 93 90 82 81 81 81 73 78 88 70 88 91 99 100 97 100 100 96 82 29 9 15 12 10 9 9 14
76 68 53 69 84 78 75 67 66 73 87 87 87 85 65 64 78 78 81 88 84 78 69 78 82 66 91 86 93 98 100 100 97 90 76 16 11 15 12 10 10 10 16 18
91 87 59 76 76 78 78 80 78 96 98 84 82 89 80 69 86 82 86 85 83 76 75 58 60 90 84 91 100 100 99 91 88 77 14 14 15 13 10 10 11 19 24 59
96 92 80 81 97 100 100 86 96 77 80 77 75 75 78 79 91 95 90 84 64 53 44 55 83 88 95 100 99 94 89 93 76 18 20 17 14 10 11 12 16 24 52 70
97 85 85 97 100 93 96 76 69 76 73 82 75 75 84 91 97 92 72 58 54 44 52 71 89 100 100 100 96 90 94 80 22 24 19 15 11 11 14 16 19 42 64 60
87 69 86 85 96 98 82 81 80 85 92 95 94 97 93 90 77 64 69 61 38 40 66 91 100 100 100 97 96 96 83 28 28 21 16 12 12 14 20 16 28 63 75 73
76 88 95 94 94 90 90 91 87 85 94 96 100 100 98 82 78 69 42 36 47 75 93 100 100 100 99 97 99 86 34 32 25 17 12 12 14 28 28 19 45 60 91 100
96 83 90 64 90 100 94 81 78 89 96 100 96 88 85 75 44 37 40 64 84 96 100 100 100 100 99 97 88 42 38 29 18 13 12 14 20 37 23 20 44 90 100 100
85 89 95 93 80 76 70 70 82 99 100 90 83 83 55 37 34 34 69 83 96 100 100 100 100 100 97 92 50 45 33 19 14 13 14 15 33 41 17 23 42 95 100 100
98 97 85 80 75 66 72 84 95 98 84 70 61 43 31 28 32 76 86 100 100 100 100 100 100 100 94 57 51 36 21 14 13 15 16 20 48 39 22 48 94 87 100 100
87 89 91 82 76 84 91 97 93 84 58 39 30 26 26 51 82 90 100 100 100 100 100 100 100 93 63 55 36 20 15 15 16 18 16 27 61 33 32 90 100 100 100 100
83 100 100 100 99 98 99 91 75 62 34 20 20 27 80 91 96 100 100 100 100 100 100 100 84 67 55 32 18 16 16 18 20 19 16 32 67 33 39 98 100 100 100 100
95 97 100 97 95 95 83 70 55 28 12 13 24 93 100 96 99 100 100 100 100 100 99 77 64 46 23 16 16 17 20 23 23 18 17 37 72 37 50 98 100 100 100 100
82 94 94 90 74 63 51 32 10 7 11 31 89 100 100 100 100 100 100 100 100 95 74 56 34 18 16 16 17 24 29 29 24 17 27 49 74 40 64 97 100 100 100 100
65 68 70 68 46 22 5 3 7 17 32 83 100 100 98 100 100 100 100 100 90 69 45 25 17 16 17 19 27 33 38 33 23 26 48 71 79 42 69 98 100 100 100 100
76 67 21 2 0 2 7 14 25 41 98 100 100 100 100 100 100 100 100 85 61 36 20 15 16 17 20 29 35 41 47 33 27 63 79 93 80 44 79 100 100 100 100 100
11 9 6 6 8 18 26 35 70 100 100 100 100 100 100 100 100 99 80 49 29 17 14 16 18 20 28 35 42 64 46 34 56 92 100 92 83 48 94 100 100 100 100 100
12 12 14 16 25 34 56 94 100 100 100 100 100 100 100 100 97 68 39 25 17 14 16 18 21 30 34 41 58 65 44 66 96 100 97 82 85 59 100 100 100 100 100 100
20 21 25 31 37 99 100 100 100 100 100 100 100 100 100 96 52 32 23 17 14 16 19 22 28 36 38 42 71 61 53 99 100 100 80 77 83 72 100 100 100 100 100 100
25 32 38 49 100 100 100 100 100 100 100 100 100 100 92 36 29 24 16 13 15 19 25 27 35 41 47 70 71 63 69 100 100 100 65 63 86 80 100 100 100 100 100 100
34 47 62 100 100 100 100 100 100 100 100 100 100 86 28 26 26 18 14 14 19 26 28 37 49 48 57 66 58 53 71 100 100 100 80 81 79 86 100 100 100 100 100 100
82 85 97 100 100 100 100 100 100 100 100 100 85 28 25 28 22 17 16 20 28 28 30 50 52 53 51 50 51 57 94 100 100 100 82 80 75 78 100 100 100 100 100 100
100 100 100 100 100 100 100 100 97 100 100 97 34 24 28 30 25 21 20 24 35 38 37 54 53 54 55 58 65 96 100 100 100 100 95 73 73 77 90 100 100 100 100 100

GFSNGP_500_rhum_009.txt.gz
RH
42 42 46 52 57 60 58 59 56 55 72 80 78 69 64 71 68 69 75 72 66 63 60 56 54 60 78 94 100 100 94 80 76 62 38 34 52 83 84 84 91 94 90 95
38 50 53 55 60 56 57 66 73 69 70 81 71 69 68 78 75 76 77 77 72 66 57 50 58 71 83 88 87 90 84 77 49 37 41 69 84 82 89 100 97 98 98 47
53 56 54 55 60 58 59 69 66 64 56 56 71 68 68 79 79 83 82 80 79 67 54 51 48 54 74 83 88 82 73 41 37 55 90 100 100 100 100 100 100 79 27 23
56 55 50 62 67 68 59 65 67 69 64 73 68 62 94 100 100 98 90 83 75 66 59 51 65 76 90 93 79 62 34 32 47 90 100 100 100 100 100 100 60 27 24 19
56 46 42 54 56 49 44 42 52 54 61 71 100 77 74 75 85 77 83 74 61 53 58 65 88 99 94 81 54 28 25 56 92 100 100 100 100 100 98 56 28 25 20 15
58 48 37 63 49 55 54 42 64 68 72 64 68 82 53 63 72 72 79 74 70 67 78 88 97 93 84 58 21 20 54 83 95 98 100 100 100 96 62 30 26 20 15 13
70 58 49 70 69 63 63 56 59 59 56 55 58 71 76 60 60 76 93 86 73 93 99 92 86 78 60 20 16 54 90 100 100 100 100 100 95 68 35 27 21 15 13 13
67 61 65 79 78 93 83 71 78 66 61 61 69 74 75 75 79 70 56 62 100 97 82 70 68 58 18 16 62 95 100 100 100 100 100 96 72 39 30 21 15 13 13 17
94 69 79 96 99 90 100 90 77 68 62 52 54 75 79 81 75 53 45 60 91 86 63 50 44 16 27 88 100 100 100 100 100 100 99 73 42 32 21 15 13 13 14 19
85 75 75 79 81 94 82 75 70 60 73 100 78 61 81 100 70 96 100 97 100 82 43 24 10 34 100 100 100 100 100 100 100 100 79 47 32 21 15 13 13 13 22 27
68 85 76 72 83 70 69 70 61 72 68 56 44 37 63 42 47 100 100 80 94 54 12 7 43 99 100 100 100 100 100 100 100 82 46 30 21 15 14 13 13 14 26 84
81 80 82 65 64 76 72 65 50 26 20 27 24 25 32 46 63 84 94 99 77 9 11 57 95 100 98 99 100 99 97 96 79 43 28 20 15 14 14 16 16 27 31 100
94 90 84 80 83 72 40 17 16 14 22 28 36 41 68 91 99 100 94 60 10 17 72 100 100 100 100 100 100 98 96 64 33 24 17 15 14 15 18 20 19 46 50 100
100 100 76 47 36 28 15 21 32 23 50 51 65 94 100 100 100 67 14 12 31 78 99 100 100 100 99 100 100 85 44 28 18 16 15 16 19 22 23 18 35 57 69 100
85 55 38 24 13 10 20 32 47 67 69 79 100 100 100 82 11 9 21 63 94 100 100 100 100 100 100 95 55 31 22 17 16 16 19 26 32 30 22 19 64 54 100 100
28 22 15 9 10 30 29 60 64 92 100 100 100 100 32 14 14 25 68 100 100 100 100 100 100 100 70 37 27 19 16 15 17 22 34 43 38 24 32 48 76 58 100 100
14 9 13 18 24 34 49 67 91 100 63 38 22 15 16 20 32 86 100 100 100 100 100 100 85 45 34 24 18 15 17 21 27 39 56 44 32 48 76 87 75 76 100 100
14 18 35 61 66 74 76 99 73 34 21 15 17 18 21 30 90 100 100 100 100 100 97 63 42 33 21 15 15 19 24 29 37 60 54 45 63 99 99 96 66 86 100 100
28 35 28 46 75 63 43 32 23 20 19 21 21 26 38 87 100 100 100 100 100 92 49 41 28 20 14 16 20 24 29 33 59 62 57 90 100 100 98 90 59 96 100 100
26 25 32 41 43 37 30 26 23 26 25 22 32 47 96 100 100 100 100 100 82 47 42 27 20 15 16 21 25 31 34 55 71 63 94 98 100 92 96 84 61 100 100 100
29 37 41 39 35 30 27 29 30 29 26 32 50 96 100 100 100 100 100 79 43 41 28 23 16 17 22 24 31 40 50 59 60 82 99 100 99 85 95 78 84 100 100 100
40 38 37 34 33 31 32 33 32 30 39 53 87 100 100 100 100 100 85 42 42 34 27 23 18 21 25 28 34 42 47 49 49 80 99 100 95 81 94 94 100 100 100 100
42 36 35 36 37 33 30 27 30 38 84 91 100 100 100 100 100 98 54 41 41 38 32 28 24 21 27 31 42 49 48 49 53 92 100 100 100 91 98 100 100 100 100 100
35 36 34 31 27 24 23 24 28 80 100 100 100 100 100 100 100 75 33 34 44 46 44 43 38 26 28 32 46 55 49 62 96 100 100 100 99 91 92 100 100 100 100 100
33 28 27 27 23 25 27 27 45 100 100 100 100 100 100 100 98 71 37 36 41 49 54 57 55 42 29 36 39 52 59 88 97 100 100 100 100 94 88 100 100 100 100 100
28 24 23 26 31 36 33 42 100 100 100 100 100 100 100 100 100 77 42 33 38 46 54 59 65 64 44 32 38 41 61 72 96 100 100 100 100 99 84 95 100 100 100 100
22 26 57 68 59 42 54 100 100 100 100 100 100 100 98 100 100 92 64 44 38 40 43 46 58 74 72 52 38 40 44 63 69 94 98 100 100 100 100 89 96 100 100 100

GFSNGP_500_rhum_012.txt.gz
RH
48 53 54 58 59 58 58 59 54 54 52 47 47 44 42 42 44 48 47 59 79 71 86 99 86 80 63 62 50 49 66 64 66 64 63 40 15 14 47 90 100 90 75 77
56 56 58 65 62 59 57 54 48 43 38 36 37 40 42 52 51 53 68 87 100 96 86 75 77 70 57 52 40 48 58 63 63 64 31 15 26 69 100 96 91 94 100 100
58 60 58 61 54 49 44 49 39 34 34 43 43 45 56 55 55 56 67 94 85 58 49 56 54 56 59 35 33 67 66 49 47 36 24 68 100 100 100 100 100 100 100 96
52 55 51 68 52 51 45 52 51 50 56 54 50 52 61 64 58 58 50 50 48 46 43 37 38 33 35 34 66 60 54 42 33 20 57 98 100 100 100 100 100 100 85 41
58 47 43 69 54 51 45 51 56 61 59 59 69 66 69 63 54 53 51 50 44 30 48 97 97 96 67 87 84 44 39 23 23 76 100 100 100 100 100 100 96 74 36 25
64 59 48 77 65 61 55 52 60 62 58 65 67 57 49 53 55 55 59 46 35 32 41 87 100 83 98 100 98 60 12 28 80 95 99 93 98 100 100 90 72 35 25 18
78 70 64 82 73 66 58 50 54 67 70 70 67 71 70 66 47 38 55 92 79 29 41 96 68 56 91 100 93 27 38 95 100 99 100 100 100 100 94 82 44 27 18 15
69 66 74 75 88 94 84 69 73 69 74 73 74 76 60 40 37 14 14 15 23 30 41 50 80 98 99 88 28 52 100 100 100 100 100 100 100 97 88 53 30 20 16 14
90 68 86 95 99 92 93 80 73 81 79 72 65 35 27 20 10 9 23 34 45 63 88 98 97 60 19 19 71 100 100 100 100 100 100 100 98 87 49 29 20 17 14 13
93 90 95 96 100 100 91 84 87 75 52 38 20 13 7 11 16 21 27 50 100 100 100 100 76 9 39 90 99 100 100 100 100 100 100 99 70 37 26 20 18 15 13 14
89 96 81 97 92 77 76 86 71 52 30 17 12 7 7 11 17 22 52 89 94 96 99 78 15 46 92 98 100 100 100 100 100 100 82 42 29 22 18 15 14 13 15 18
70 89 98 61 58 61 66 44 36 28 19 12 8 9 14 25 36 66 99 99 83 59 26 18 60 100 100 100 100 100 100 100 82 43 29 24 17 15 15 17 18 20 20 33
75 81 98 80 84 92 52 30 26 20 11 11 16 26 47 73 100 100 100 30 20 17 22 80 100 100 100 100 100 100 86 39 28 24 17 15 16 19 27 38 35 27 20 56
73 93 87 89 85 44 31 22 14 12 22 51 48 82 100 100 100 93 20 19 20 42 94 100 100 100 100 100 91 49 32 26 18 15 17 19 24 37 50 42 27 24 40 63
47 36 36 27 23 22 16 16 16 16 57 98 100 100 100 95 44 19 21 24 57 100 100 100 100 100 98 60 39 30 20 15 16 19 24 30 49 50 36 28 43 57 87 70
22 18 17 16 17 15 27 55 57 65 100 100 100 92 36 22 22 24 23 57 100 100 100 100 100 81 44 33 23 17 15 18 22 26 31 46 48 42 52 76 88 100 71 97
17 13 14 46 51 40 98 83 82 100 100 98 33 28 24 27 28 28 60 99 100 100 100 100 62 42 27 22 16 16 20 23 27 32 52 45 57 82 100 100 100 97 70 100
14 15 15 18 29 24 32 61 51 36 32 33 30 28 31 33 31 57 98 100 100 100 100 65 42 28 23 18 16 20 23 28 36 52 49 67 92 100 100 100 96 76 82 100
17 20 26 28 32 33 32 30 31 33 34 30 30 33 36 32 51 82 100 100 100 100 68 43 33 26 23 18 19 24 28 33 46 48 50 88 96 100 96 96 94 66 94 100
29 30 39 51 46 38 36 37 30 28 31 32 34 32 33 52 75 99 100 100 100 87 44 41 37 31 28 23 22 27 35 40 41 42 43 86 96 99 90 95 84 75 100 100
43 44 44 44 44 37 32 34 33 34 31 32 31 27 38 85 98 100 100 100 98 63 42 46 45 42 38 34 25 28 36 43 41 42 57 91 97 99 90 95 95 100 100 100
45 47 49 46 36 30 29 33 34 30 27 25 26 28 96 100 100 100 100 100 84 46 37 46 52 52 52 49 37 28 32 42 44 60 85 90 97 98 95 98 100 100 100 100
53 50 37 30 31 32 32 28 25 25 25 27 29 70 100 100 100 100 100 99 78 42 37 41 50 53 54 60 57 36 33 44 57 85 87 90 94 100 95 96 100 100 100 99
38 41 41 38 32 24 22 20 19 26 32 33 62 100 100 100 100 100 100 99 86 42 37 38 42 43 45 58 71 62 37 36 50 80 88 89 92 96 98 98 99 100 100 100
44 38 32 25 24 20 25 35 41 44 40 91 100 100 100 100 100 100 100 100 90 61 52 44 46 37 38 62 76 83 65 41 40 53 80 89 90 94 100 95 99 100 100 100
32 28 26 21 24 46 61 51 48 79 100 100 100 100 100 100 100 100 100 100 99 86 74 64 71 44 32 57 75 90 90 70 48 44 55 69 79 85 94 100 99 100 100 100
31 31 28 30 38 59 52 47 87 100 100 100 100 100 100 100 100 100 100 100 100 100 99 97 77 34 34 63 84 96 96 93 78 57 52 60 75 81 89 94 100 99 100 100

GFSNGP_500_rhum_018.txt.gz
RH
56 60 55 51 49 52 51 52 52 57 51 58 58 55 51 49 50 44 41 45 48 46 44 43 34 21 19 15 9 8 20 63 100 70 23 14 10 8 11 18 41 80 90 96
58 70 70 67 59 65 64 66 63 60 62 58 51 46 46 48 45 46 44 46 48 46 52 51 32 17 14 11 15 22 18 22 37 27 12 9 10 14 33 90 100 100 100 100
63 64 65 62 63 73 70 71 69 60 56 50 52 54 59 54 55 54 51 51 50 46 34 20 18 16 15 22 34 27 28 41 25 15 11 12 14 46 93 100 100 100 100 100
68 64 62 75 77 74 67 68 71 64 59 54 54 53 56 58 56 54 56 59 60 56 41 22 23 31 48 67 48 46 20 16 15 14 14 29 80 99 99 100 100 100 100 100
70 68 61 76 90 80 70 62 69 60 58 56 50 41 54 72 68 62 57 67 61 53 38 19 24 42 89 99 69 42 16 13 14 19 55 96 100 100 100 100 100 100 99 97
78 81 71 82 84 83 71 52 52 49 49 52 52 45 49 50 50 49 51 48 39 33 31 34 27 31 29 51 71 34 14 16 23 79 97 89 89 92 94 92 93 96 82 52
88 80 69 84 82 75 61 49 44 55 55 52 56 53 46 55 63 58 43 34 26 41 68 64 87 48 48 27 26 17 17 26 69 78 75 78 84 90 89 73 40 34 31 28
84 86 83 77 67 65 61 58 63 60 59 58 61 63 60 94 97 60 32 20 66 100 98 89 76 95 29 20 18 20 46 76 82 86 84 87 79 44 31 28 22 18 15 14
89 79 83 76 70 76 69 68 70 68 61 79 89 76 70 71 46 30 24 26 42 59 68 100 94 53 20 18 21 52 81 87 91 90 60 34 29 21 17 15 14 15 16 17
69 79 78 73 83 82 83 85 80 75 70 75 90 76 100 100 53 40 37 31 55 71 74 83 36 20 19 22 57 80 87 88 68 38 26 21 18 14 15 16 19 22 24 32
70 76 69 88 81 84 82 82 81 100 93 64 46 96 100 85 29 25 37 86 100 91 39 31 21 21 25 53 83 83 86 64 33 24 21 17 16 16 19 23 28 33 33 33
76 86 76 69 70 80 90 76 68 56 38 38 70 69 35 22 26 72 64 100 100 68 42 25 24 28 46 84 80 86 71 39 29 24 20 17 18 24 35 38 40 43 44 44
85 89 89 93 96 94 82 67 47 37 43 47 37 23 22 27 49 50 38 56 55 49 31 28 30 32 81 87 89 84 50 38 30 26 20 20 23 35 38 73 95 84 89 97
94 98 98 95 90 80 65 50 58 61 45 28 27 35 29 46 100 100 45 71 100 60 29 32 30 60 94 92 96 63 49 41 33 29 22 22 29 33 38 68 93 100 100 100
89 91 91 86 73 63 66 67 58 43 32 33 47 35 36 78 84 47 51 57 44 31 33 32 36 91 97 99 82 57 54 45 37 34 25 23 28 33 44 86 98 100 100 99
86 80 75 72 73 72 64 56 41 30 29 35 42 38 39 47 54 54 50 34 31 34 33 30 61 98 100 100 64 58 58 50 43 40 29 23 28 36 78 93 97 100 99 100
82 84 85 77 72 68 51 33 34 36 38 38 42 51 51 51 38 28 31 33 33 30 28 34 98 97 100 96 53 58 61 57 51 47 36 24 31 61 86 98 96 93 98 90
77 76 78 72 48 36 35 32 41 44 46 47 44 43 33 24 24 26 26 22 23 29 31 95 100 100 100 86 49 50 60 58 60 55 46 28 44 70 80 92 91 89 97 89
88 78 52 36 32 31 35 39 41 42 42 41 30 23 24 25 23 20 18 19 28 36 93 100 100 100 100 67 48 53 72 59 64 64 60 36 38 65 75 81 87 91 100 100
48 36 30 28 34 40 39 42 42 39 28 21 26 28 22 21 20 22 24 33 44 99 100 100 100 100 95 53 52 67 76 63 68 74 71 53 34 56 70 78 86 92 98 100
30 27 34 44 39 36 39 37 26 20 26 27 22 22 23 25 32 36 46 87 100 100 100 100 100 100 80 60 70 78 85 59 69 80 79 75 46 37 61 71 86 91 95 100
37 40 35 31 32 31 25 24 28 28 21 20 23 26 38 47 50 67 100 100 100 100 100 100 100 100 84 80 80 94 91 61 79 84 82 86 72 45 40 59 73 88 93 99
33 32 32 29 27 27 27 30 23 23 24 25 26 38 44 63 96 100 99 96 99 100 100 100 100 100 100 100 100 97 74 78 89 88 84 85 88 70 50 44 57 76 87 96
33 31 31 36 36 33 25 26 28 50 38 31 35 41 78 96 98 98 98 98 97 100 100 100 99 100 100 100 98 86 84 88 89 84 82 81 87 88 74 58 52 62 82 87
33 38 40 34 29 28 32 29 37 59 40 37 42 62 99 100 100 98 99 95 94 95 100 100 100 100 100 96 92 82 68 78 84 83 80 78 80 91 85 79 65 63 81 91
43 39 35 36 40 37 33 34 64 64 38 40 51 60 92 98 98 95 91 95 100 99 100 100 100 100 96 90 79 68 69 79 86 82 81 76 76 86 84 81 80 73 86 95
40 48 48 47 47 41 42 83 71 54 57 35 49 53 68 83 90 96 98 99 92 95 100 100 100 96 89 87 85 74 71 78 85 85 84 79 77 80 74 76 83 82 84 100

GFSNGP_500_rhum_021.txt.gz
RH
51 53 54 53 65 74 73 72 60 63 63 66 60 60 60 56 55 51 49 40 35 33 35 37 41 41 38 34 29 25 28 33 36 40 31 28 14 12 12 15 26 69 97 100
45 56 59 56 72 71 71 65 61 68 72 69 65 62 59 54 47 39 35 34 34 36 38 49 53 44 33 26 25 30 33 58 69 48 48 20 12 14 18 51 82 92 100 100
52 49 52 55 69 79 81 84 83 80 74 67 67 59 54 49 46 43 40 40 42 47 62 61 62 48 30 26 28 36 52 53 38 41 41 14 18 35 82 96 93 95 98 97
60 58 52 61 65 76 78 90 88 79 70 64 57 53 53 47 44 46 47 48 55 59 72 98 88 42 24 20 27 58 48 36 22 15 14 23 59 84 89 91 93 95 96 92
64 56 53 81 80 79 78 76 77 66 60 59 60 50 53 55 58 58 52 61 77 72 92 98 94 50 24 36 52 76 68 39 16 16 35 68 78 82 80 75 63 47 36 30
70 67 55 85 84 83 71 61 59 52 56 57 61 51 56 56 61 62 68 93 100 100 100 100 90 52 38 60 84 80 46 20 18 37 68 71 70 61 38 28 24 21 18 16
80 73 72 86 82 69 57 51 44 48 59 64 69 72 70 66 68 76 87 78 86 91 100 98 68 38 50 78 73 48 18 21 39 66 72 70 49 28 23 21 19 16 15 15
73 83 70 72 61 56 52 51 64 73 78 82 73 76 80 84 100 100 100 45 84 100 100 48 37 78 40 38 40 23 21 36 71 76 76 48 31 25 22 19 17 17 18 22
82 74 79 73 61 67 67 78 81 89 84 76 93 94 79 66 76 96 51 84 100 72 33 50 100 98 54 44 41 24 28 75 86 81 56 38 29 25 22 18 19 24 27 30
74 91 83 78 85 90 99 98 99 91 93 98 96 75 56 43 53 62 51 32 31 45 40 84 100 83 50 51 26 28 66 94 87 70 48 37 30 26 20 20 26 29 38 57
69 81 77 92 97 100 98 94 91 94 91 90 84 59 58 62 50 34 35 43 69 63 40 55 59 51 52 31 30 41 96 96 79 62 49 37 31 27 20 24 29 30 64 83
72 82 78 74 77 82 76 82 92 94 98 85 70 72 69 55 44 37 34 59 52 40 44 49 52 49 34 33 32 80 100 88 70 60 48 38 34 26 24 26 32 68 87 93
83 84 88 90 86 82 84 81 83 84 77 80 77 60 66 67 44 31 33 38 41 44 49 45 35 34 34 33 39 100 100 76 64 59 48 39 36 25 25 41 77 83 90 98
94 89 90 89 87 85 86 86 88 89 81 74 76 68 49 38 33 38 43 43 41 35 29 30 32 33 33 31 82 100 90 68 60 61 51 43 40 26 28 62 83 96 95 93
77 82 87 93 93 90 93 90 82 82 80 68 44 34 32 36 36 32 34 29 23 26 27 24 24 27 32 43 100 100 87 55 53 64 56 49 46 29 40 69 84 92 92 86
89 88 91 91 88 87 87 87 74 59 44 32 32 33 32 30 31 26 22 24 23 20 19 20 24 34 41 100 100 98 82 51 59 68 63 58 52 36 40 67 79 83 91 97
91 94 89 91 90 81 66 55 43 33 25 26 26 26 27 26 20 21 21 19 20 21 21 23 36 50 100 100 100 95 65 49 71 71 65 66 57 48 33 60 74 81 91 96
89 86 83 74 66 58 46 32 24 24 28 25 24 24 19 21 21 17 18 20 26 32 38 44 90 100 100 100 100 78 50 58 79 73 68 70 64 63 36 44 69 83 90 93
76 74 67 57 44 32 23 21 23 24 25 24 20 18 21 18 20 20 27 38 39 49 80 100 100 100 100 100 100 69 53 73 87 75 72 78 69 71 55 35 55 76 88 97
66 54 42 31 26 24 24 25 22 23 22 21 24 21 17 23 22 32 44 50 62 97 100 100 99 99 100 100 95 68 74 92 93 74 80 82 74 74 71 51 38 60 78 94
38 28 22 23 21 25 26 25 22 19 25 25 19 18 22 26 30 37 55 81 98 100 100 96 88 96 100 100 99 100 99 98 83 79 78 79 75 73 75 71 53 41 63 80
24 23 22 26 26 26 24 22 23 26 22 22 25 28 35 32 36 74 87 88 99 100 96 79 84 93 99 100 100 100 100 90 76 65 71 76 74 70 72 79 71 58 46 69
24 29 30 30 27 25 26 28 25 23 29 32 28 46 39 37 54 87 91 96 100 100 86 76 80 93 100 100 100 100 91 78 63 60 68 76 71 66 68 78 78 73 60 54
36 35 29 28 33 36 30 26 27 34 34 38 61 50 40 45 56 95 100 100 100 86 77 78 83 95 100 100 100 94 80 73 68 62 66 75 69 67 66 72 77 74 78 66
31 28 32 37 36 35 34 31 34 37 39 75 61 53 42 50 55 80 100 100 98 81 75 77 91 100 100 100 99 87 88 85 77 70 67 74 72 69 68 72 74 69 78 79
31 38 40 38 41 46 44 47 47 43 52 80 74 60 53 47 51 57 83 98 100 90 92 97 99 96 100 100 100 97 95 90 87 80 72 77 80 76 72 71 74 66 74 83
42 43 40 44 53 58 60 62 56 54 49 78 84 80 70 74 72 66 49 49 87 98 96 100 94 99 100 99 94 94 92 92 90 88 80 82 89 85 79 77 77 70 72 83

GFSNGP_500_rhum_024.txt.gz
RH
41 47 52 50 55 52 56 67 62 72 70 77 69 75 75 73 73 61 52 47 44 45 48 49 50 49 52 69 84 85 100 100 95 72 40 30 17 17 17 18 35 53 68 80
35 44 50 48 55 56 59 68 75 82 84 86 87 84 76 66 54 47 46 49 48 46 45 46 48 59 64 76 100 85 78 87 71 46 39 26 16 14 19 43 69 79 86 85
42 44 44 51 49 50 63 78 81 92 93 83 80 70 63 52 49 51 50 53 56 50 54 58 66 80 97 62 64 75 97 70 49 42 59 26 16 22 52 68 74 68 45 28
45 43 45 54 68 66 70 80 84 82 78 72 59 52 57 47 53 57 59 64 58 58 64 81 100 100 100 75 98 98 58 38 49 77 50 18 23 53 64 68 56 32 23 21
42 43 44 63 72 68 70 83 80 73 68 62 56 51 64 58 59 62 63 59 68 74 81 100 100 98 78 74 81 47 45 43 70 49 24 24 50 68 70 56 36 27 23 22
49 57 57 75 74 74 66 58 55 61 60 57 60 54 55 60 64 65 66 76 83 86 62 54 66 64 58 53 53 66 37 47 50 32 23 39 72 74 66 44 33 26 25 20
57 65 64 73 68 60 55 54 56 55 59 61 58 59 58 58 64 76 99 100 88 65 72 76 65 56 55 82 70 43 49 52 44 26 30 77 84 74 56 41 31 28 24 19
61 73 70 66 60 62 61 62 64 66 61 63 63 63 63 62 77 98 100 77 72 82 67 56 53 41 51 46 46 50 53 45 30 31 59 94 83 66 50 37 31 28 20 21
77 83 82 77 71 68 69 65 66 69 65 70 65 62 64 99 100 97 80 87 80 69 63 60 39 38 42 44 46 49 38 33 34 38 93 91 74 58 45 35 31 23 20 29
74 81 70 66 69 69 73 80 74 65 58 65 74 90 100 94 88 87 84 80 68 52 39 32 37 40 40 40 37 33 36 39 35 74 98 76 65 55 43 35 30 21 40 65
76 76 69 70 72 69 68 65 60 67 81 83 85 90 89 89 83 78 69 53 36 27 26 31 31 31 30 27 31 36 39 38 44 100 83 67 62 54 44 36 26 34 62 77
77 73 72 67 63 60 58 61 71 80 80 92 92 88 83 75 66 52 37 26 24 27 26 25 23 23 26 29 30 34 38 39 94 97 74 59 62 55 46 40 27 51 70 79
78 71 69 70 64 64 69 68 70 82 87 83 83 77 65 53 38 24 23 26 24 23 21 21 23 23 23 25 30 40 46 87 100 85 65 61 65 58 52 46 32 56 68 72
72 70 69 67 69 67 66 75 80 82 80 73 64 54 38 24 21 22 22 22 21 19 20 18 18 21 22 25 37 51 87 100 96 84 57 68 67 60 58 55 33 51 63 68
73 73 74 74 71 73 81 80 73 67 61 52 37 25 20 19 19 20 20 20 20 18 17 19 22 27 29 38 49 96 100 100 92 68 54 77 68 65 64 63 38 44 64 70
75 73 71 70 72 75 71 64 59 50 37 21 14 16 19 21 21 19 20 20 16 18 20 28 31 36 47 65 100 100 100 99 84 52 70 82 71 72 72 68 53 35 63 76
80 76 67 67 67 63 62 54 37 20 15 13 15 18 19 18 17 20 18 17 23 28 32 36 46 72 100 100 100 100 100 91 62 54 89 82 74 76 75 70 66 38 47 73
76 68 66 62 58 54 40 22 13 14 16 14 16 18 16 20 20 18 18 24 30 38 49 80 98 99 100 97 98 100 98 70 58 86 95 78 71 70 73 71 70 60 36 58
68 63 57 54 42 25 13 12 13 15 17 18 18 17 22 19 22 22 26 28 37 62 94 98 100 100 100 86 91 98 96 83 94 99 84 68 61 72 75 70 68 68 53 39
62 56 46 29 16 13 15 17 16 17 20 19 20 23 19 24 23 29 31 40 72 81 91 93 98 100 86 79 88 97 99 99 100 90 69 58 58 69 72 68 64 69 65 49
47 31 15 10 11 16 19 19 20 22 20 24 23 21 27 25 32 39 36 71 80 85 93 94 100 94 82 72 86 100 100 100 94 76 66 60 57 66 69 66 61 66 69 64
14 11 11 13 15 18 22 23 22 24 27 24 26 32 29 41 45 41 40 81 99 100 98 99 100 78 68 69 89 99 100 98 84 76 72 67 61 65 70 67 62 64 68 66
10 12 15 19 20 23 24 24 27 30 27 32 39 38 46 46 44 42 46 58 92 100 100 100 94 77 68 74 91 96 100 95 88 85 76 72 70 66 74 72 63 63 66 64
19 24 23 24 26 26 27 33 33 33 39 47 52 52 52 68 62 54 52 56 65 99 100 100 99 87 82 91 90 100 100 100 94 89 81 76 76 70 74 79 74 69 65 62
29 28 26 25 27 33 35 34 35 43 49 59 62 59 50 68 81 73 58 60 61 62 78 99 100 98 100 86 94 100 100 96 84 77 76 77 79 79 76 84 81 74 71 66
30 25 25 29 37 37 36 39 44 54 55 58 64 63 56 49 59 66 70 78 77 82 82 100 100 100 100 88 95 100 100 95 88 79 77 80 83 85 81 88 88 83 78 75
27 28 30 36 39 39 45 49 51 55 59 59 62 70 55 50 51 54 64 81 82 89 98 96 98 100 100 100 100 100 100 99 90 84 84 85 88 90 83 93 93 89 84 84

GFSNGP_500_rhum_027.txt.gz
RH
29 37 42 40 40 42 51 59 55 57 65 89 91 87 97 88 81 73 65 62 60 58 55 48 47 48 51 58 58 64 74 80 72 71 67 59 49 33 24 25 20 27 62 72
38 44 34 34 39 48 52 61 57 66 78 88 92 94 85 81 70 62 58 58 54 46 41 40 39 45 59 56 84 100 100 78 72 67 46 34 30 29 26 22 23 59 73 76
36 30 29 32 38 50 57 63 64 67 81 85 85 73 68 56 57 58 51 40 32 30 34 45 58 68 92 100 92 81 79 66 60 38 34 35 39 35 27 26 50 78 77 64
30 27 27 39 51 56 58 65 64 73 74 74 68 56 61 54 54 50 40 36 41 46 63 83 94 100 100 92 86 71 60 58 40 38 41 44 41 28 29 43 80 79 68 51
28 23 32 43 42 57 62 74 66 65 64 64 59 57 61 52 49 45 44 49 64 69 77 100 100 88 84 81 68 55 56 40 38 43 43 41 29 29 36 79 82 74 53 43
23 27 38 54 56 57 60 58 61 60 57 56 57 55 56 47 39 42 50 59 59 62 90 89 82 79 70 53 45 56 38 40 40 38 35 30 33 35 66 88 80 59 48 38
25 32 47 55 60 57 58 62 57 57 60 57 50 46 42 43 44 42 46 54 66 86 77 76 70 53 36 25 33 50 42 32 32 30 32 35 36 42 97 86 68 51 43 36
28 41 59 63 58 57 62 64 63 61 56 51 50 49 47 46 48 58 60 70 76 75 68 55 40 28 23 22 56 34 28 28 30 34 38 40 39 86 96 75 56 47 41 30
39 57 74 77 73 67 72 65 63 61 59 57 54 50 50 52 62 61 73 76 68 57 43 23 15 19 23 22 25 23 23 28 32 36 40 42 68 100 84 63 55 49 41 26
38 81 80 74 77 70 72 69 63 61 55 55 55 54 56 60 69 73 65 57 45 24 11 11 14 17 19 19 20 24 25 28 38 47 51 83 100 90 69 61 56 48 42 26
51 74 78 81 82 78 71 64 61 59 60 56 55 54 55 64 64 56 46 28 12 10 12 13 16 16 19 20 19 23 27 34 48 58 86 100 94 80 67 64 56 50 44 28
79 87 86 84 82 77 69 61 59 62 63 63 60 56 58 55 50 34 12 9 10 11 14 15 16 18 16 18 26 34 46 39 56 84 100 99 88 61 72 68 61 56 49 30
87 86 90 84 72 71 66 67 68 68 64 60 57 59 55 43 20 9 10 10 12 14 16 18 16 16 19 25 31 42 48 56 79 100 100 95 61 73 76 66 57 56 54 32
90 87 73 68 70 70 70 71 70 66 61 60 53 47 33 10 9 9 11 14 15 17 17 16 18 23 27 29 36 50 56 95 100 100 98 73 61 84 76 64 59 58 51 36
75 73 68 62 60 66 71 71 68 66 60 49 40 18 9 9 10 11 14 15 18 18 17 20 26 34 44 57 72 90 98 100 100 100 88 58 80 87 70 56 59 61 60 46
69 64 64 69 74 77 77 74 67 57 47 30 10 9 10 12 13 14 16 19 18 18 20 26 38 70 91 90 91 96 100 97 98 90 64 75 95 76 52 54 61 60 59 56
73 73 78 82 84 82 76 67 55 42 19 9 10 10 11 13 14 16 18 18 21 22 26 32 68 83 82 85 86 96 89 93 98 79 83 95 89 58 49 54 59 57 56 59
86 82 88 93 88 77 64 52 32 11 9 10 11 12 14 16 16 18 18 22 20 30 36 53 85 85 88 84 85 95 90 90 91 93 96 96 70 59 51 53 57 55 53 57
93 93 95 90 77 63 45 21 10 10 11 12 13 16 17 20 20 20 23 22 33 32 59 74 83 88 89 83 88 96 81 89 98 100 99 83 70 61 56 54 58 57 54 54
95 95 88 78 61 32 12 10 10 12 14 16 18 18 20 23 23 28 30 32 37 39 89 92 93 97 92 89 89 73 70 98 100 100 94 78 71 62 61 56 61 62 57 54
92 86 75 46 19 12 12 13 14 15 18 20 20 23 23 24 34 36 37 32 36 41 86 100 100 95 94 100 92 73 77 100 100 99 88 86 75 64 62 61 63 69 65 57
78 54 24 13 12 11 14 17 19 19 20 20 24 26 25 32 41 42 39 49 40 42 51 82 100 99 100 100 96 85 91 96 100 98 95 82 74 64 62 64 65 73 74 66
30 18 14 12 12 14 18 20 20 21 22 26 27 28 34 42 46 40 40 46 54 46 48 54 86 100 100 100 99 100 89 98 100 98 95 79 70 64 62 68 68 73 79 74
16 14 13 15 18 20 19 21 22 23 26 30 36 36 41 43 52 48 46 43 48 44 52 61 64 63 73 100 100 100 82 88 100 100 96 81 72 67 65 71 72 70 84 84
15 17 21 23 22 21 21 23 25 30 32 35 41 46 52 51 50 57 48 47 46 48 62 70 78 92 100 100 100 100 95 96 100 100 98 87 80 76 77 77 78 70 83 90
23 26 24 22 22 22 22 25 31 37 37 39 51 65 63 58 69 56 49 53 66 68 68 73 78 85 95 99 100 100 100 100 100 100 100 93 92 94 87 90 88 72 80 90
25 24 24 24 27 28 30 36 40 40 42 53 63 65 63 86 89 75 70 76 78 80 81 81 88 94 92 96 100 100 98 100 100 100 100 97 100 100 100 97 93 79 79 93

GFSNGP_500_rhum_030.txt.gz
RH
20 26 28 28 26 29 35 44 53 56 58 74 69 95 80 78 90 81 64 61 65 61 43 33 34 34 37 40 44 62 89 99 93 71 70 52 33 34 28 25 25 30 25 26
17 20 24 25 24 28 31 40 49 57 67 75 80 60 64 61 64 57 58 62 54 42 36 38 38 38 42 48 57 86 73 69 60 44 27 23 28 30 24 25 27 25 30 46
18 19 20 23 23 26 34 45 54 58 68 58 50 54 61 54 63 61 53 47 43 40 36 38 37 37 45 51 54 60 59 45 29 15 25 44 32 26 25 26 27 32 39 90
19 19 21 21 23 26 38 47 47 55 58 58 65 66 58 55 52 44 44 43 40 39 39 37 42 53 52 41 41 39 24 12 11 10 19 22 24 24 28 31 36 37 90 89
19 20 22 21 21 29 34 54 52 65 61 61 59 58 58 51 50 46 42 40 39 38 41 50 51 41 44 45 28 11 10 12 18 20 15 21 24 28 35 38 40 67 86 81
20 21 22 24 25 26 33 50 51 56 57 57 59 57 56 50 47 46 48 47 48 49 42 40 40 45 34 15 11 13 16 28 28 32 63 40 38 40 47 51 66 88 84 65
21 22 23 24 24 24 37 50 63 68 66 65 59 55 52 48 49 48 46 43 42 44 44 42 43 22 9 9 10 12 14 63 46 25 59 99 50 49 61 94 98 88 72 60
23 23 25 26 25 26 48 72 73 74 70 67 61 54 54 53 49 45 44 45 47 44 42 36 15 8 8 8 11 11 16 18 81 67 98 88 38 60 98 100 92 79 67 57
24 26 30 31 33 63 79 84 81 82 71 58 56 55 52 50 45 47 49 50 46 42 28 10 9 8 9 10 14 16 14 22 43 55 75 62 59 90 100 96 77 75 64 54
27 31 40 45 62 76 86 84 75 62 60 60 56 52 46 48 53 52 53 48 40 22 9 9 8 8 12 15 15 14 17 25 31 50 55 65 93 100 94 72 78 72 60 48
29 41 63 60 76 81 79 74 69 72 59 52 49 49 56 58 60 58 51 39 16 9 9 8 8 11 16 15 15 20 21 24 30 40 51 86 97 95 72 66 82 67 53 49
38 50 69 72 73 72 71 69 66 55 51 55 60 64 68 67 62 53 40 15 9 10 8 9 11 15 16 16 23 27 30 35 42 61 86 88 95 83 56 85 75 56 53 54
74 69 75 67 62 63 62 60 54 54 58 66 73 77 73 65 55 36 11 10 10 8 10 12 14 15 16 22 41 62 67 78 84 92 90 91 89 64 83 82 53 47 50 52
80 88 77 77 75 70 67 64 62 65 74 78 78 76 70 57 32 11 10 10 8 10 12 14 15 17 21 35 66 72 75 81 82 82 86 87 73 76 89 59 47 42 44 47
89 95 93 94 83 72 64 65 74 82 80 80 80 72 56 29 11 10 10 9 10 13 14 15 16 22 28 58 68 71 78 80 79 79 86 87 84 92 77 59 48 43 46 42
92 100 99 87 79 78 80 81 83 86 88 84 74 53 21 11 11 10 11 12 15 15 16 16 18 27 44 69 72 74 67 69 78 84 86 91 92 95 70 60 49 44 50 48
100 99 92 79 78 81 86 90 93 92 84 73 44 19 12 12 11 12 14 18 18 20 21 20 27 37 59 75 75 77 70 74 81 76 96 98 99 84 72 60 51 45 51 54
87 82 77 82 92 94 100 100 94 82 64 37 18 13 12 12 13 15 18 20 21 26 24 26 33 61 70 76 86 85 71 70 71 76 99 100 99 83 76 63 53 48 51 58
87 89 96 99 100 100 100 91 79 52 25 17 13 12 12 15 16 19 22 22 28 31 30 26 34 65 90 98 99 88 82 82 79 89 99 100 94 88 75 62 53 50 50 62
96 100 100 100 100 96 86 67 41 23 17 15 13 13 14 18 21 24 25 27 34 35 32 37 34 40 80 99 98 89 88 91 86 91 97 99 97 86 72 60 54 52 52 60
100 100 100 100 94 81 57 38 25 17 15 15 16 16 19 21 26 28 27 32 36 38 35 37 38 35 48 88 100 100 93 90 94 92 98 99 97 88 72 63 57 54 55 57
100 100 98 95 80 54 30 21 16 15 17 18 18 20 22 28 32 29 35 42 45 40 37 37 39 42 50 56 74 82 84 93 97 85 90 98 96 87 72 66 65 65 60 58
99 95 82 54 32 21 16 17 18 19 18 19 21 24 29 34 34 33 45 52 52 45 42 41 40 48 52 59 65 65 96 100 100 90 85 90 96 92 85 78 76 73 69 64
75 47 29 22 18 17 18 18 19 20 21 21 22 25 30 32 36 60 59 60 64 46 46 51 54 55 61 62 67 88 97 100 100 100 100 96 96 98 93 90 89 85 82 74
29 22 19 18 19 21 20 21 21 23 25 28 31 38 42 45 61 59 67 85 82 73 76 77 73 72 73 78 81 79 83 97 100 100 96 97 96 100 99 97 97 96 91 82
20 19 20 22 22 22 22 21 21 25 32 34 38 49 54 79 86 77 81 87 88 87 88 88 87 85 83 77 79 94 100 100 100 100 100 100 99 100 100 100 100 100 96 93
20 20 21 21 23 23 23 27 29 38 47 52 60 74 79 91 98 91 85 84 83 86 88 90 92 92 93 99 100 98 99 100 100 100 100 100 100 100 100 100 100 100 100 96

GFSNGP_500_rhum_033.txt.gz
RH
15 16 20 21 20 21 22 21 22 30 47 45 46 57 65 74 70 68 63 60 58 53 48 46 48 49 49 39 39 40 44 38 36 22 10 9 8 7 8 13 19 25 30 33
16 18 18 19 19 21 20 20 22 26 50 43 53 60 64 63 57 60 61 57 54 51 51 50 45 35 31 38 46 43 33 24 11 9 9 7 8 10 21 20 34 50 39 43
17 18 19 18 20 21 22 22 23 23 35 52 59 59 58 60 61 60 58 54 53 48 41 34 30 31 40 39 38 33 22 11 9 8 8 11 40 97 100 98 68 58 48 57
18 18 18 18 19 21 22 23 25 34 42 48 61 67 69 67 64 62 58 55 47 37 29 30 32 35 38 39 36 23 15 9 8 10 12 18 100 95 100 61 87 95 68 76
17 17 18 18 19 21 23 24 32 38 43 54 71 72 70 70 66 56 47 33 26 27 32 37 40 43 42 38 19 10 9 8 9 11 15 44 100 100 100 92 92 75 100 94
16 16 17 18 19 21 23 26 30 40 57 74 77 75 72 59 50 38 29 28 32 33 37 47 52 48 42 21 10 10 8 6 8 13 14 73 100 100 100 100 86 100 98 94
16 16 17 19 19 24 27 32 33 53 61 69 71 67 53 41 30 27 31 33 37 42 50 51 50 47 26 11 11 8 7 9 13 14 20 65 95 100 100 93 100 98 84 80
17 18 19 21 21 26 30 29 43 60 69 66 58 49 39 31 33 37 41 45 45 40 41 49 50 30 15 11 9 7 10 13 14 18 20 27 53 60 58 92 91 74 77 78
20 22 23 24 26 28 31 51 61 60 53 53 49 39 38 41 42 43 49 50 48 50 56 53 29 14 12 9 8 10 14 15 22 23 22 24 32 51 90 93 68 66 81 56
20 24 27 31 29 29 35 59 68 60 55 53 51 48 47 44 44 52 59 56 58 62 57 30 16 13 10 7 11 13 16 32 41 43 52 65 80 81 85 70 61 82 56 44
27 32 33 32 33 43 64 77 70 65 71 68 59 54 51 54 59 67 70 68 67 56 35 21 14 10 8 10 13 15 26 55 62 64 68 74 72 83 75 66 85 65 49 41
34 38 36 37 45 65 81 86 82 85 87 78 69 65 65 71 77 80 74 69 55 35 23 16 11 9 10 12 13 19 47 63 66 72 73 70 72 80 75 80 86 58 51 41
42 39 34 35 52 73 88 93 94 100 95 89 76 75 80 82 88 81 72 52 37 24 16 11 10 11 13 12 16 29 61 66 72 72 72 71 73 82 80 97 76 58 49 41
39 35 35 40 58 62 71 93 100 97 88 82 77 82 89 90 86 72 52 38 26 15 12 11 12 14 16 16 23 40 68 73 69 65 69 70 73 88 94 94 72 60 50 41
70 75 68 56 57 78 97 96 92 91 89 85 88 92 94 86 74 54 37 26 14 12 13 15 17 18 20 23 32 60 78 78 75 68 68 64 79 98 100 88 71 59 47 40
73 82 91 99 100 100 100 98 96 94 92 91 92 97 88 74 58 38 23 14 13 14 17 20 21 25 24 26 49 66 80 83 82 72 65 66 78 100 100 86 74 58 48 41
88 91 96 100 100 100 98 94 93 90 92 96 98 90 78 63 39 19 14 15 17 19 23 23 26 32 30 27 50 89 91 99 96 82 76 70 80 94 94 87 72 60 50 43
99 100 100 99 98 98 99 96 93 99 100 98 92 79 60 32 18 16 16 17 19 23 27 27 34 36 34 32 34 81 100 100 100 92 84 74 83 93 91 88 75 62 52 46
94 96 100 99 100 100 100 99 100 100 96 88 74 51 25 18 17 16 17 19 22 26 29 36 38 38 34 35 36 46 94 100 100 96 81 82 83 93 92 87 75 62 55 51
90 99 100 100 100 100 100 100 100 95 83 62 34 21 17 17 16 18 20 21 29 33 39 46 43 41 40 36 33 44 57 99 100 89 81 87 78 86 91 86 76 69 62 58
100 100 100 100 100 100 100 98 91 74 39 23 20 16 16 16 18 21 25 28 36 40 53 51 52 45 44 45 46 50 60 67 68 74 90 96 82 78 84 89 86 76 70 68
100 100 100 100 100 100 97 76 44 26 21 18 16 16 16 19 23 27 34 35 42 53 53 66 55 50 56 59 57 59 58 66 77 94 98 98 98 99 96 97 98 90 84 80
100 100 100 99 94 78 43 26 21 18 15 14 16 17 17 19 27 31 32 44 59 58 85 82 78 79 79 79 80 77 76 73 79 85 95 100 100 100 100 97 100 100 93 87
100 99 95 68 36 25 20 17 15 16 16 18 20 22 24 25 30 39 50 59 80 75 83 86 86 86 87 89 92 92 85 79 83 87 93 100 100 100 100 100 100 100 100 99
82 50 30 24 18 15 16 15 16 20 26 30 32 32 32 33 41 50 64 68 88 89 84 80 80 86 91 96 97 95 95 97 99 97 98 100 100 100 100 100 100 100 100 100
28 21 17 16 16 16 16 18 24 22 20 22 31 45 42 43 51 66 77 80 81 80 81 86 89 90 91 96 100 100 100 100 100 100 100 100 100 100 100 100 100 100 100 100
17 17 16 18 18 22 25 21 19 17 23 32 36 57 54 50 56 70 80 81 80 82 90 84 87 93 99 100 100 100 100 100 100 100 100 100 100 100 100 100 100 100 100 100

GFSNGP_500_rhum_036.txt.gz
RH
13 15 17 18 19 19 19 20 21 22 23 23 25 40 47 54 60 62 62 62 62 62 60 58 55 44 37 33 26 24 36 49 43 40 34 28 20 11 7 9 15 93 96 98
15 15 17 18 18 19 19 20 21 21 23 24 23 32 47 65 69 71 70 69 68 64 57 43 30 29 26 24 31 31 26 28 40 36 30 21 11 7 11 15 52 100 100 100
13 15 17 18 18 19 19 20 21 22 23 27 29 43 58 67 74 76 76 75 60 45 31 30 31 27 31 29 26 30 43 48 36 20 15 9 8 11 14 25 97 100 97 95
14 17 17 17 18 18 18 20 20 21 25 28 28 44 64 80 83 81 72 54 39 30 32 32 33 33 34 35 40 51 50 34 19 14 9 9 11 12 20 100 100 100 100 96
16 16 16 16 17 17 17 21 22 23 27 29 34 52 66 67 66 58 50 41 35 34 33 34 39 44 46 45 52 51 30 23 16 10 8 9 10 14 21 52 100 100 97 73
16 16 15 16 17 17 21 25 25 26 29 33 46 57 60 60 54 47 42 40 38 39 43 48 55 55 50 52 54 37 24 19 12 8 10 10 16 18 18 34 67 74 64 91
16 16 15 17 19 20 24 26 31 30 30 34 53 65 62 58 54 54 52 49 49 52 58 57 55 54 57 56 46 31 18 13 9 11 11 21 26 27 33 46 62 80 77 68
17 18 18 20 19 21 25 30 33 32 32 35 53 71 62 60 67 69 68 64 63 65 60 59 61 62 59 50 38 20 14 10 11 12 25 45 50 52 57 61 68 70 67 79
19 20 20 19 20 22 28 32 32 32 30 36 64 81 80 80 86 84 79 70 65 62 62 65 67 64 52 39 22 15 11 11 11 14 46 59 61 61 60 64 69 70 81 72
19 21 22 24 33 28 28 33 31 28 30 45 61 68 78 92 96 85 74 70 64 63 62 70 68 56 41 20 14 12 12 13 13 30 62 66 63 65 64 71 75 75 80 64
18 22 23 31 32 32 36 33 30 33 44 54 59 72 88 89 83 79 78 68 65 68 78 73 59 41 21 15 12 12 14 14 18 58 70 68 69 71 72 80 81 83 81 63
24 31 33 37 37 37 37 41 47 51 54 55 77 88 88 88 87 80 71 70 78 87 77 60 37 21 16 13 13 15 17 19 34 73 76 66 70 75 73 86 89 88 78 61
38 45 44 41 45 50 57 69 79 86 86 96 95 94 93 91 82 76 79 81 86 79 58 37 21 16 14 14 16 19 20 28 55 80 83 74 77 67 70 81 94 92 80 59
46 42 40 43 48 62 70 82 92 96 98 96 96 95 94 83 78 83 84 86 76 52 30 20 17 15 16 17 20 23 25 41 68 87 90 86 75 64 73 98 100 94 80 62
37 45 51 57 69 81 91 94 98 98 97 97 95 96 90 81 83 87 88 72 46 26 20 16 15 17 18 20 24 30 33 42 87 97 100 100 82 76 72 88 95 93 80 64
40 58 64 68 93 95 100 100 100 100 97 93 92 95 88 84 90 90 65 36 23 18 15 15 18 19 21 24 32 35 38 38 92 100 100 100 99 83 76 87 93 92 81 64
78 77 76 79 92 96 98 96 95 94 96 92 95 92 89 95 87 55 29 21 16 14 16 18 21 22 26 35 41 42 38 40 60 100 100 100 100 86 78 87 98 92 80 66
92 96 100 99 100 100 100 97 97 99 97 98 97 98 98 78 46 28 20 14 12 14 17 20 24 27 41 48 51 45 37 34 49 88 100 100 97 84 83 84 98 93 82 73
89 82 77 76 80 92 99 100 100 100 100 100 100 94 64 38 25 16 12 13 15 16 19 25 28 42 49 59 52 48 43 43 51 66 98 100 93 90 92 79 87 94 89 82
69 66 69 79 96 100 100 100 100 100 100 100 82 50 30 19 14 11 14 19 21 22 24 30 43 51 72 64 52 55 57 56 57 59 74 76 93 99 100 95 96 98 100 97
74 84 98 100 100 100 100 100 100 100 94 68 44 25 15 13 13 19 24 24 27 27 31 41 58 71 82 80 82 78 76 80 78 74 71 86 99 100 100 100 100 100 100 100
100 100 100 100 100 100 100 100 98 81 52 28 17 14 13 16 23 27 31 31 32 32 38 55 75 76 78 80 85 87 84 84 87 87 87 86 84 91 100 100 100 100 100 99
100 100 100 100 100 100 99 85 63 35 18 14 14 15 22 23 19 18 20 39 42 39 50 67 87 90 82 75 74 77 85 90 90 89 94 100 100 100 100 100 100 100 100 100
100 100 100 100 97 87 60 27 17 15 14 16 22 26 22 18 17 23 33 53 52 50 60 74 76 78 78 84 90 91 88 85 93 97 98 100 100 100 100 100 100 100 100 100
100 99 91 64 33 19 17 16 17 18 19 24 24 20 18 15 16 26 46 67 63 60 64 74 79 79 81 91 85 86 94 98 99 99 100 100 100 100 100 100 100 100 100 100
59 35 22 17 18 18 18 20 21 20 25 26 22 20 18 17 18 42 62 75 71 67 68 70 70 69 74 79 78 84 88 80 59 54 55 61 86 100 100 100 100 100 100 100
18 20 21 21 24 25 25 24 23 30 34 28 22 20 18 16 20 34 66 80 76 73 77 75 71 69 69 77 75 83 87 71 60 57 57 56 58 66 89 100 100 100 100 100